When you browse on this site, cookies collect data to enhance your experience and personalize the content and advertising you see.
Visit our Privacy Policy to learn more. By continuing to use the site, you agree to this use of cookies and data.
  • In Austria
  • List of Countries
  • For 7 days
  • Water Temperature
  • Satellite Maps
  • Weather Map
  • News
  • Weather Widgets
  • user-avatar
    Login

    Hourly Weather Veresnica

    Today, 20 July, Saturday

    Time Temperature Precipitation Wind Pressure Humidity
    00:00 +15°C° 0 mm 1 mps 750 mmHg 91%
    01:00 +15°C° 0 mm 1 mps 750 mmHg 91%
    02:00 +14°C° 0 mm 1 mps 750 mmHg 92%
    03:00 +14°C° 0 mm 1 mps 751 mmHg 92%
    04:00 +14°C° 0 mm 1 mps 751 mmHg 92%
    05:00 +14°C° 0 mm 1 mps 751 mmHg 92%
    06:00 +16°C° 0 mm 1 mps 751 mmHg 85%
    07:00 +19°C° 0 mm 1 mps 751 mmHg 78%
    08:00 +21°C° 0 mm 1 mps 751 mmHg 71%
    09:00 +23°C° 0 mm 1 mps 752 mmHg 64%
    10:00 +25°C° 0 mm 1 mps 752 mmHg 57%
    11:00 +26°C° 0 mm 1 mps 752 mmHg 51%
    12:00 +26°C° 0 mm 1 mps 752 mmHg 50%
    13:00 +27°C° 0 mm 1 mps 752 mmHg 49%
    14:00 +27°C° 0 mm 1 mps 752 mmHg 47%
    15:00 +26°C° 0.1 mm 2 mps 751 mmHg 52%
    16:00 +26°C° 0.1 mm 2 mps 751 mmHg 56%
    17:00 +25°C° 0.1 mm 2 mps 751 mmHg 60%
    18:00 +24°C° 0.1 mm 2 mps 751 mmHg 66%
    19:00 +22°C° 0.1 mm 1 mps 751 mmHg 73%
    20:00 +20°C° 0.1 mm 1 mps 751 mmHg 79%
    21:00 +19°C° 0 mm 1 mps 752 mmHg 83%
    22:00 +18°C° 0 mm 1 mps 752 mmHg 87%
    23:00 +18°C° 0 mm 1 mps 752 mmHg 90%

    Tomorrow, 21 July, Sunday

    Time Temperature Precipitation Wind Pressure Humidity
    00:00 +16°C° 0 mm 1 mps 752 mmHg 91%
    01:00 +16°C° 0 mm 1 mps 752 mmHg 92%
    02:00 +16°C° 0 mm 1 mps 752 mmHg 93%
    03:00 +16°C° 0 mm 1 mps 752 mmHg 94%
    04:00 +16°C° 0 mm 1 mps 752 mmHg 94%
    05:00 +16°C° 0 mm 1 mps 752 mmHg 94%
    06:00 +19°C° 0 mm 1 mps 752 mmHg 87%
    07:00 +21°C° 0 mm 1 mps 752 mmHg 80%
    08:00 +21°C° 0 mm 0 mps 752 mmHg 73%
    09:00 +22°C° 0 mm 0 mps 752 mmHg 67%
    10:00 +24°C° 0 mm 0 mps 752 mmHg 61%
    11:00 +26°C° 0 mm 0 mps 752 mmHg 55%
    12:00 +26°C° 0 mm 0 mps 752 mmHg 53%
    13:00 +27°C° 0 mm 0 mps 752 mmHg 51%
    14:00 +28°C° 0 mm 0 mps 751 mmHg 49%
    15:00 +29°C° 0.1 mm 1 mps 751 mmHg 52%
    16:00 +28°C° 0.1 mm 1 mps 751 mmHg 56%
    17:00 +28°C° 0.1 mm 1 mps 751 mmHg 60%
    18:00 +26°C° 0.1 mm 1 mps 751 mmHg 66%
    19:00 +22°C° 0.1 mm 0 mps 750 mmHg 73%
    20:00 +20°C° 0.1 mm 0 mps 750 mmHg 79%
    21:00 +22°C° 0.1 mm 1 mps 750 mmHg 81%
    22:00 +21°C° 0.1 mm 1 mps 750 mmHg 84%
    23:00 +21°C° 0.1 mm 1 mps 750 mmHg 86%

    Day after tomorrow, 22 July, Monday

    Time Temperature Precipitation Wind Pressure Humidity
    00:00 +20°C° 0.9 mm 1 mps 750 mmHg 89%
    01:00 +20°C° 0.9 mm 1 mps 750 mmHg 92%
    02:00 +20°C° 0.9 mm 1 mps 749 mmHg 95%
    03:00 +19°C° 0.4 mm 1 mps 749 mmHg 96%
    04:00 +18°C° 0.4 mm 2 mps 749 mmHg 97%
    05:00 +18°C° 0.4 mm 3 mps 749 mmHg 98%
    06:00 +18°C° 1.9 mm 3 mps 749 mmHg 98%
    07:00 +18°C° 1.9 mm 3 mps 749 mmHg 97%
    08:00 +18°C° 1.9 mm 3 mps 749 mmHg 97%
    09:00 +19°C° 0.4 mm 3 mps 749 mmHg 96%
    10:00 +19°C° 0.4 mm 4 mps 749 mmHg 95%
    11:00 +19°C° 0.4 mm 5 mps 749 mmHg 93%
    12:00 +19°C° 0.6 mm 5 mps 749 mmHg 92%
    13:00 +20°C° 0.6 mm 6 mps 749 mmHg 90%
    14:00 +20°C° 0.6 mm 6 mps 749 mmHg 88%
    15:00 +20°C° 0.3 mm 6 mps 749 mmHg 85%
    16:00 +21°C° 0.3 mm 6 mps 749 mmHg 82%
    17:00 +21°C° 0.3 mm 5 mps 749 mmHg 78%
    18:00 +20°C° 0.2 mm 5 mps 749 mmHg 82%
    19:00 +19°C° 0.2 mm 5 mps 749 mmHg 86%
    20:00 +18°C° 0.2 mm 4 mps 749 mmHg 90%
    21:00 +18°C° 0 mm 4 mps 749 mmHg 90%
    22:00 +17°C° 0 mm 4 mps 749 mmHg 91%
    23:00 +15°C° 0 mm 5 mps 749 mmHg 91%

    23 July, Tuesday

    Time Temperature Precipitation Wind Pressure Humidity
    00:00 +15°C° 0 mm 4 mps 749 mmHg 90%
    01:00 +15°C° 0 mm 4 mps 748 mmHg 89%
    02:00 +14°C° 0 mm 4 mps 748 mmHg 88%
    03:00 +14°C° 0 mm 4 mps 748 mmHg 88%
    04:00 +14°C° 0 mm 4 mps 748 mmHg 88%
    05:00 +14°C° 0 mm 5 mps 748 mmHg 88%
    06:00 +14°C° 0.2 mm 5 mps 747 mmHg 89%
    07:00 +14°C° 0.2 mm 5 mps 747 mmHg 90%
    08:00 +14°C° 0.2 mm 5 mps 747 mmHg 91%
    09:00 +14°C° 0.4 mm 4 mps 747 mmHg 93%
    10:00 +15°C° 0.4 mm 4 mps 747 mmHg 95%
    11:00 +15°C° 0.4 mm 4 mps 747 mmHg 96%
    12:00 +17°C° 0.2 mm 4 mps 747 mmHg 93%
    13:00 +18°C° 0.2 mm 4 mps 747 mmHg 90%
    14:00 +20°C° 0.2 mm 4 mps 748 mmHg 86%
    15:00 +20°C° 0.3 mm 4 mps 748 mmHg 86%
    16:00 +20°C° 0.3 mm 4 mps 747 mmHg 85%
    17:00 +20°C° 0.3 mm 4 mps 747 mmHg 85%
    18:00 +20°C° 0.1 mm 4 mps 748 mmHg 86%
    19:00 +19°C° 0.1 mm 4 mps 748 mmHg 88%
    20:00 +19°C° 0.1 mm 3 mps 748 mmHg 90%
    21:00 +18°C° 0 mm 3 mps 748 mmHg 91%
    22:00 +17°C° 0 mm 3 mps 748 mmHg 93%
    23:00 +17°C° 0 mm 3 mps 748 mmHg 94%

    24 July, Wednesday

    Time Temperature Precipitation Wind Pressure Humidity
    00:00 +16°C° 0 mm 3 mps 749 mmHg 95%
    01:00 +16°C° 0 mm 3 mps 749 mmHg 95%
    02:00 +14°C° 0 mm 3 mps 749 mmHg 96%
    03:00 +14°C° 0 mm 3 mps 749 mmHg 96%
    04:00 +15°C° 0 mm 2 mps 749 mmHg 96%
    05:00 +14°C° 0 mm 2 mps 749 mmHg 96%
    06:00 +16°C° 0 mm 2 mps 749 mmHg 91%
    07:00 +18°C° 0 mm 2 mps 750 mmHg 85%
    08:00 +19°C° 0 mm 2 mps 750 mmHg 80%
    09:00 +21°C° 0 mm 2 mps 750 mmHg 71%
    10:00 +24°C° 0 mm 3 mps 750 mmHg 63%
    11:00 +26°C° 0 mm 3 mps 750 mmHg 55%
    12:00 +25°C° 0.1 mm 3 mps 750 mmHg 59%
    13:00 +25°C° 0.1 mm 3 mps 750 mmHg 62%
    14:00 +23°C° 0.1 mm 4 mps 750 mmHg 66%
    15:00 +24°C° 0 mm 3 mps 750 mmHg 67%
    16:00 +24°C° 0 mm 3 mps 750 mmHg 68%
    17:00 +24°C° 0 mm 2 mps 750 mmHg 69%
    18:00 +23°C° 0 mm 2 mps 750 mmHg 75%
    19:00 +20°C° 0 mm 2 mps 750 mmHg 81%
    20:00 +20°C° 0 mm 1 mps 750 mmHg 87%
    21:00 +19°C° 0 mm 1 mps 750 mmHg 89%
    22:00 +19°C° 0 mm 1 mps 750 mmHg 92%
    23:00 +18°C° 0 mm 1 mps 751 mmHg 94%

    25 July, Thursday

    Time Temperature Precipitation Wind Pressure Humidity
    00:00 +18°C° 0 mm 1 mps 751 mmHg 95%
    01:00 +16°C° 0 mm 1 mps 751 mmHg 95%
    02:00 +16°C° 0 mm 2 mps 751 mmHg 96%
    03:00 +16°C° 0 mm 2 mps 751 mmHg 96%
    04:00 +16°C° 0 mm 2 mps 751 mmHg 96%
    05:00 +15°C° 0 mm 2 mps 751 mmHg 97%
    06:00 +17°C° 0 mm 2 mps 751 mmHg 91%
    07:00 +19°C° 0 mm 2 mps 751 mmHg 86%
    08:00 +21°C° 0 mm 2 mps 752 mmHg 80%
    09:00 +22°C° 0 mm 3 mps 752 mmHg 74%
    10:00 +24°C° 0 mm 3 mps 752 mmHg 67%
    11:00 +26°C° 0 mm 3 mps 752 mmHg 61%
    12:00 +26°C° 0 mm 3 mps 751 mmHg 59%
    13:00 +27°C° 0 mm 3 mps 751 mmHg 57%
    14:00 +27°C° 0 mm 4 mps 751 mmHg 56%
    15:00 +27°C° 0.2 mm 3 mps 751 mmHg 61%
    16:00 +26°C° 0.2 mm 3 mps 750 mmHg 66%
    17:00 +26°C° 0.2 mm 3 mps 750 mmHg 71%
    18:00 +24°C° 0.3 mm 3 mps 750 mmHg 76%
    19:00 +23°C° 0.3 mm 2 mps 750 mmHg 82%
    20:00 +20°C° 0.3 mm 2 mps 750 mmHg 87%
    21:00 +19°C° 0 mm 2 mps 750 mmHg 90%
    22:00 +18°C° 0 mm 2 mps 751 mmHg 92%
    23:00 +18°C° 0 mm 2 mps 751 mmHg 95%
    Show more